Regional Weather Roundup
Issued by NWS Upton, NY

Current Version | Previous Version | Text Only | Print | Product List | Glossary On
Versions: 1 2 3 4 5 6 7 8 9 10 11 12 13 14 15 16 17 18 19 20 21 22 23 24 25 26 27 28 29 30 31 32 33 34 35 36 37 38 39 40 41 42 43 44 45 46 47 48 49 50
000
ASUS41 KOKX 032008
RWROKX

REGIONAL WEATHER ROUNDUP
NATIONAL WEATHER SERVICE NEW YORK NY
400 PM EDT SUN MAY 03 2015

NOTE: "FAIR" INDICATES FEW OR NO CLOUDS BELOW 12,000 FEET WITH NO
SIGNIFICANT WEATHER AND/OR OBSTRUCTIONS TO VISIBILITY.

NYZ071-072-176-178-NJZ106-104-032100-
NEW YORK CITY METRO AREA


CITY           SKY/WX    TMP DP  RH WIND       PRES   REMARKS
CENTRAL PARK   SUNNY     77  36  22 MISG      30.08F
LAGUARDIA APRT MOSUNNY   74  41  30 S14       30.05F
KENNEDY INTL   MOSUNNY   66  46  48 S10       30.09F
NEWARK/LIBERTY MOSUNNY   76  38  25 SE13      30.05F
BRNX BOT. GARD   N/A     73  39  29 S5        30.05F
TETERBORO      SUNNY     78  38  23 S10       30.03F
$$

NYZ177-179-078>081-032100-
LONG ISLAND NEW YORK

CITY           SKY/WX    TMP DP  RH WIND       PRES   REMARKS
FARMINGDALE    SUNNY     65  47  52 S10       30.09F
ISLIP          MOSUNNY   62  47  57 S10       30.08F
SHIRLEY        SUNNY     59  45  59 S13       30.10F
WESTHAMPTON    SUNNY     58  43  57 SW10      30.12S
MONTAUK POINT    N/A     55  43  63 S8G16     30.12S
$$

NYZ052-065-067-032100-
HUDSON VALLEY

CITY           SKY/WX    TMP DP  RH WIND       PRES   REMARKS
WHITE PLAINS   MOSUNNY   74  37  26 SW9       30.04F
NEWBURGH       PTSUNNY   72  43  35 NW8       30.04F
MONTGOMERY     MOSUNNY   78  39  24 NW8       30.02F
POUGHKEEPSIE   MOSUNNY   79  39  23 SE3       30.02F
ALBANY         PTSUNNY   79  38  22 W5        30.01F
$$

NJZ001-105-106-008-010-013-015-019>022-104-032100-
NEW JERSEY

CITY           SKY/WX    TMP DP  RH WIND       PRES   REMARKS
NEWARK/LIBERTY MOSUNNY   76  38  25 SE13      30.05F
TETERBORO      SUNNY     78  38  23 S10       30.03F
CALDWELL       PTSUNNY   77  37  23 S13       30.04F
MORRISTOWN     PTSUNNY   77  36  22 NW5       30.04F
SOMERVILLE     SUNNY     79  39  23 S5        30.03F
SUSSEX         PTSUNNY   77  40  26 VRB5      30.05F
ANDOVER          N/A     77  36  22 CALM      30.05F
TRENTON        SUNNY     78  34  20 SW6       30.06F
MILLVILLE      PTSUNNY   78  44  29 NW8       30.08F
ATLANTIC CITY  SUNNY     70  47  43 SE8       30.10S
WRIGHTSTOWN    SUNNY     79  39  24 VRB6      30.04F
TOMS RIVER     SUNNY     73  39  29 SE10      30.10S
BELMAR         SUNNY     72  43  35 SE10      30.08F
$$

PAZ047>061-062-071-032100-
EASTERN PENNSYLVANIA

CITY           SKY/WX    TMP DP  RH WIND       PRES   REMARKS
PHILADELPHIA   MOSUNNY   79  36  21 W7        30.07F
ALLENTOWN      SUNNY     79  38  22 VRB7      30.05F
SCRANTON       SUNNY     79  34  19 NW7       30.06F
$$

CTZ002-004>006-009-010-012-RIZ004-006-007-MAZ004-011-015-032100-
SOUTHERN NEW ENGLAND
 IN CT

CITY           SKY/WX    TMP DP  RH WIND       PRES   REMARKS
BRADLEY INTL   PTSUNNY   77  37  23 CALM      30.02F
HARTFORD       CLOUDY    74  40  29 SW12G22   30.03R
DANBURY        MOSUNNY   76  33  21 VRB5      30.05F
WTRBRY/OXFORD  PTSUNNY   72  41  33 S9        30.05F
BRIDGEPORT     SUNNY     70  47  43 S13       30.05F
MERIDEN        MOSUNNY   72  37  28 S9        30.05S
NEW HAVEN      MOSUNNY   68  44  42 S9        30.06F
CHESTER        FAIR      68  45  42 S13       30.07S
GROTON         SUNNY     54  44  69 S8        30.09S
WILLIMANTIC    MOSUNNY   73  40  30 S9G17     30.04R

 IN RI

CITY           SKY/WX    TMP DP  RH WIND       PRES   REMARKS
PROVIDENCE     PTSUNNY   53  43  68 S17       30.09S
BLOCK ISLAND   SUNNY     52  41  66 S18       30.11S
WESTERLY       SUNNY     52  43  71 S15       30.11S

 IN MA

CITY           SKY/WX    TMP DP  RH WIND       PRES   REMARKS
BOSTON         PTSUNNY   59  46  62 E8        30.05F
WORCESTER      PTSUNNY   71  32  23 CALM      30.05S
WESTFIELD      PTSUNNY   76  36  23 S8        30.02F
PROVINCETOWN   SUNNY     57  41  54 S18G24    30.10S
NANTUCKET      SUNNY     51  41  68 S10       30.14F
$$

ANZ330-335-338-340-345-350-353-355-032100-
COASTAL MARINE OBSERVATIONS


STATION/POSITION TIME  SKY/WX   TEMP    WIND        PRES    VSBY  WAVE
                                AIR SEA DIR/SP/G                  HT/PER
                 (UTC)          (F)     (DEG/KT/KT) (MB)    (MI)  (FT/S)
NY HARB ENTRANCE 1950            54 53  170/ 12/ 14 1018.5          4/ 9
4S FIRE IS       1903               49                N/A           4/ 8
20S FIRE ISLAND  1950            49 48  170/ 10/ 12 1019.5          4/ 8
GREAT SOUTH BAY  1930            53 58  220/  8/ 10   N/A
23SW MTP         1950            48 45  200/ 12/ 14 1019.8          4/ 9
HUDSON CANYON    NOT AVBL
EXECUTION ROCKS  NOT AVBL
WESTERN LI SOUND NOT AVBL
CENTRAL LI SOUND NOT AVBL
EASTERN LI SOUND 1900            50     170/ 10/ 12   N/A
ROBBINS REEF     1900            58     190/ 16/ 18 1017.1
$$


>>>>>>>>>>>>>>>>>>>>>>>>>>>> KEY <<<<<<<<<<<<<<<<<<<<<<<<<<<
>                                                          <
>     SKY/WX - SKY CONDITION/PRESENT WEATHER               <
>     TMP    - TEMPERATURE IN FAHRENHEIT                   <
>     DP     - DEWPOINT IN FAHRENHEIT                      <
>     RH     - RELATIVE HUMIDITY IN PERCENT                <
>     WIND   - DIRECTION AND SPEED IN MPH                  <
>     PRES   - MEAN SEA LEVEL PRESSURE IN INCHES OF HG     <
>     WCI    - WIND CHILL INDEX                            <
>     VSB    - VISIBILITY IN MILES                         <
>     HX     - HEAT INDEX                                  <
>     TC     - TEMPERATURE IN CELSIUS                      <
>     VRB    - VARIABLE WIND DIRECTION                     <
>                                                          <
>>>>>>>>>>>>>>>>>>>>>>>>>>>> KEY <<<<<<<<<<<<<<<<<<<<<<<<<<<





USA.gov is the U.S. government's official web portal to all federal, state and local government web resources and services.